Weather History for Beaufort, NC

Change the Weather History Date:

Thursday, October 30, 2014

  Actual Average Record
Temperature  
Mean Temperature 62 °F -  
Max Temperature 71 °F 70 °F 83 °F (1971)
Min Temperature 53 °F 50 °F 33 °F (1976)
Degree Days  
Heating Degree Days 2    
Growing Degree Days 12 (Base 50)    
Moisture  
Dew Point 56 °F    
Average Humidity 83    
Maximum Humidity 97    
Minimum Humidity 63    
Precipitation  
Precipitation 0.06 in - - ()
Sea Level Pressure  
Sea Level Pressure 29.96 in    
Wind  
Wind Speed 11 mph (NNE)    
Max Wind Speed 17 mph    
Max Gust Speed 28 mph    
Visibility 10 miles    
Events Rain    
Averages and records for this station are not official NWS values.
T = Trace of Precipitation, MM = Missing Value Source: NWS Daily Summary

Daily Weather History Graph

Daily Weather History Graph

Search for Another Location

Airport:

Trip Planner

Search our weather history database for the weather conditions in past years. The results will help you decide how hot, cold, wet, or windy it might be!

Date:

Astronomy

Oct. 30, 2014 Rise Set
Actual Time 7:25 AM EDT 6:14 PM EDT
Civil Twilight 6:59 AM EDT 6:40 PM EDT
Nautical Twilight 6:29 AM EDT 7:10 PM EDT
Astronomical Twilight 6:00 AM EDT 7:39 PM EDT
Moon 1:26 PM EDT (10/30) No Moon Set
Length of Visible Light 11h 41m
Length of Day
10h 49m
Waxing Crescent, 45% of the Moon is Illuminated
Oct 30
Waxing Crescent
Oct 30
First Quarter
Nov 6
Full
Nov 14
Last Quarter
Nov 22
New

Hourly Weather History & Observations

Time (EDT) Temp. Dew Point Humidity Pressure Visibility Wind Dir Wind Speed Gust Speed Precip Events Conditions
12:58 AM 71.1 °F 66.9 °F 87% 29.94 in 10.0 mi West 11.5 mph - N/A   Overcast
1:58 AM 68.0 °F 64.9 °F 90% 29.94 in 9.0 mi WNW 9.2 mph - 0.00 in Rain Light Rain
2:58 AM 66.9 °F 64.9 °F 93% 29.92 in 10.0 mi NNW 5.8 mph - 0.05 in   Overcast
3:27 AM 66.0 °F 64.9 °F 96% 29.92 in 7.0 mi North 8.1 mph - N/A   Overcast
3:35 AM 64.0 °F 63.0 °F 96% 29.93 in 8.0 mi North 11.5 mph - N/A   Overcast
3:58 AM 63.0 °F 62.1 °F 97% 29.93 in 9.0 mi North 13.8 mph - 0.00 in Rain Light Rain
4:27 AM 62.1 °F 61.0 °F 96% 29.93 in 8.0 mi North 11.5 mph - 0.01 in Rain Light Rain
4:51 AM 60.1 °F 59.0 °F 96% 29.94 in 10.0 mi NNE 12.7 mph - 0.01 in   Overcast
4:58 AM 60.1 °F 59.0 °F 96% 29.94 in 10.0 mi NNE 13.8 mph - 0.01 in   Overcast
5:26 AM 59.0 °F 57.0 °F 93% 29.95 in 10.0 mi NNE 13.8 mph - N/A   Overcast
5:58 AM 57.9 °F 57.0 °F 97% 29.96 in 10.0 mi NNE 12.7 mph - 0.00 in Rain Light Rain
6:20 AM 57.9 °F 55.9 °F 93% 29.95 in 10.0 mi NNE 11.5 mph 21.9 mph 0.00 in   Overcast
6:49 AM 57.9 °F 55.9 °F 93% 29.96 in 10.0 mi North 10.4 mph - 0.00 in Rain Light Rain
6:58 AM 57.0 °F 55.9 °F 96% 29.97 in 10.0 mi North 11.5 mph - 0.00 in Rain Light Rain
7:58 AM 57.9 °F 55.9 °F 93% 29.98 in 10.0 mi North 11.5 mph - 0.00 in   Overcast
8:58 AM 57.9 °F 55.9 °F 93% 29.99 in 10.0 mi NNE 10.4 mph - N/A   Mostly Cloudy
9:58 AM 63.0 °F 55.0 °F 75% 29.99 in 10.0 mi NNE 17.3 mph 27.6 mph N/A   Scattered Clouds
10:58 AM 64.0 °F 54.0 °F 70% 30.01 in 10.0 mi NNE 17.3 mph 21.9 mph N/A   Mostly Cloudy
11:58 AM 64.9 °F 55.0 °F 70% 30.00 in 10.0 mi NNE 15.0 mph 20.7 mph N/A   Mostly Cloudy
12:12 PM 66.0 °F 55.0 °F 68% 29.99 in 10.0 mi NE 16.1 mph 25.3 mph N/A   Scattered Clouds
12:44 PM 66.0 °F 54.0 °F 65% 29.99 in 10.0 mi NNE 15.0 mph 23.0 mph N/A   Mostly Cloudy
12:58 PM 66.9 °F 54.0 °F 63% 29.98 in 10.0 mi NE 11.5 mph 20.7 mph N/A   Scattered Clouds
1:58 PM 66.9 °F 55.0 °F 66% 29.96 in 10.0 mi North 15.0 mph - N/A   Scattered Clouds
2:42 PM 66.9 °F 55.0 °F 66% 29.95 in 10.0 mi NNE 8.1 mph - N/A   Mostly Cloudy
2:49 PM 66.9 °F 54.0 °F 63% 29.95 in 10.0 mi North 13.8 mph - N/A   Scattered Clouds
2:58 PM 68.0 °F 55.0 °F 63% 29.95 in 10.0 mi North 11.5 mph - N/A   Mostly Cloudy
3:58 PM 66.9 °F 54.0 °F 63% 29.95 in 10.0 mi NNE 10.4 mph - N/A   Scattered Clouds
4:58 PM 64.9 °F 53.1 °F 65% 29.95 in 10.0 mi NNE 12.7 mph - N/A   Scattered Clouds
5:58 PM 62.1 °F 53.1 °F 72% 29.95 in 10.0 mi Variable 5.8 mph - N/A   Clear
6:58 PM 57.9 °F 53.1 °F 84% 29.96 in 10.0 mi NNE 5.8 mph - N/A   Partly Cloudy
7:58 PM 59.0 °F 53.1 °F 81% 29.97 in 10.0 mi NE 3.5 mph - N/A   Scattered Clouds
8:58 PM 57.0 °F 52.0 °F 83% 29.97 in 10.0 mi NNE 5.8 mph - N/A   Partly Cloudy
9:58 PM 55.0 °F 52.0 °F 89% 29.97 in 10.0 mi NNE 5.8 mph - N/A   Clear
10:58 PM 54.0 °F 51.1 °F 90% 29.96 in 10.0 mi NNE 6.9 mph - N/A   Clear
11:58 PM 53.1 °F 50.0 °F 89% 29.96 in 10.0 mi NNE 5.8 mph - N/A   Clear